Погода в Жердевке

Погода в Жердевке : погода сейчас, прогноз погоды и архив. Всё, что Вы хотите узнать о погоде в Жердевке!

Хотите узнать прогноз погоды в Жердевке? Тогда Вам сюда: Погода в Жердевке

Поиск расширенной информации на нашем сайте:

Другие новости

Новости СМИ2

Главная страница сайта

Новости сайта

03.07.2017

Напоминаем, что на нашем специализированном сайте Метеоцентр.Азия вы можете получить высокодетализированные автоматические прогнозы погоды по пунктам России, СНГ и мира в авиационном формате (включающие направление и скорость ветра, видимость, явления погоды, количество и форму облачности, нижнюю и верхнюю границу облачности).


Погода в Жердевке - сегодня

Время (UTC), дата Ветер
(°,м/с) 
Видим.   Явления Облачность Т
(°С)
Тd
(°С)
f(%) Тe
(°С)
Pmin
(гПа)
dP
(гПа)
Po
(мм)
O2
(г/м3)
Тmin Tmax R s Состояние
почвы
12 20.10.17 340 (С) 20000 м    8/8 600 м 
[Cu med, cong]
+8.9 -0.9 50 +8  1020.8  -0.5  752  294           
15 20.10.17 270 (З) 20000 м    8/0 средняя, верхняя 
[Ac As|Ci]
+5.8 -1.2 61 +7  1021.2  0.2  752  297    +9.9       
18 20.10.17 260 (З) 20000 м    ясно 
+2.5 -1.1 77 +3  1021.9  0.5  753  301           
21 20.10.17 240 (ЮЗ) 20000 м    ясно 
+0.4 -2.3 82 +1  1021.7  -0.4  752  303           
00 21.10.17 260 (З) 20000 м    ясно 
-0.6 -2.1 90 1021.5  -0.3  752  304           
03 21.10.17 270 (З) 20000 м    ясно 
-0.6 -1.8 92 1020.9  -0.6  752  304  -0.7         
06 21.10.17 тихо ()   20000 м    4/0 средняя 
[Ac trans]
+2.3 +0.4 87 +2  1020.4  -0.2  752  300  -1.3        замёрзшая 
09 21.10.17 310 (СЗ) 20000 м    9/9 630 м 
[Sc]
+5.6 +1.3 74 +6  1020  -0.2  751  296           
12 21.10.17 230 (ЮЗ) 20000 м    4/4 600 м 
[Sc]
+7.7 +0.4 60 +9  1018.1  -1.7  750  294           
15 21.10.17 310 (СЗ) 20000 м    6/0 средняя, верхняя 
[Ac trans|Ci fib]
+4.2 -0 74 +5  1017.7  -0.6  750  297    +7.7       
18 21.10.17 тихо ()   20000 м    ясно 
+1.8 -0.7 83 +2  1017.4  -0.4  749  300           
21 21.10.17 310 (СЗ) 10 км    4/0 средняя 
[Ac trans]
+0.2 -0.9 92 +1  1017  -0.6  749  302           
00 22.10.17 300 (СЗ) 10 км    4/0 средняя 
[Ac trans]
-0.9 -2.1 92 1016.2  -0.9  748  303           
03 22.10.17 330 (СЗ) 10 км    6/0 средняя 
[Ac trans]
-0.2 -1.7 90 -1  1015.7  -0.5  748  302  -1.1         
06 22.10.17 020 (С) 4000 м  дымка{ливн. осадки}  8/0 средняя 
[Ac trans]
+0.5 -0.6 92 -1  1015.7  0.1  748  301           
09 22.10.17 020 (С) 10 км    8/8 570 м кучево-дожд. 
[Cb cap]
+2.3 -0.5 82 1015.9  0.4  748  299           
12 22.10.17 010 (С) 10 км    9/9 660 м 
[Sc]
+0.6 -2.3 81 -2  1016.7  0.6  749  301           
15 22.10.17 тихо ()   10 км    6/4 600 м кучево-дожд., средняя 
[Cb cap|Ac trans]
+0.1 -2.6 82 1017.1  0.4  749  302    +2.5  0.6     
18 22.10.17 340 (С) 10 км    3/0 средняя 
[Ac trans]
-1 -3.2 85 -3  1018.7  1.4  750  304           
21 22.10.17 340 (С) 10 км    ясно 
-3.5 -4.9 90 -5  1020  1.2  751  307           
00 23.10.17 290 (З) 10 км    ясно 
-4.8 -6.1 91 -6  1020.7  0.5  751  309           
03 23.10.17 270 (З) 10 км    ясно 
-5.5 -6.9 90 -7  1021.6  0.9  752  310  -5.6         
06 23.10.17 240 (ЮЗ) 10 км    4/0 средняя 
[Ac trans]
-2.1 -4.6 83 -2  1022.7  1.4  753  306  -6.4        замёрзшая 
09 23.10.17 270 (З) 20000 м    8/5 600 м кучево-дожд., средняя 
[Cb cap|Ac trans]
+1.4 -3.4 70 1023  0.4  753  302           
12 23.10.17 270 (З) 20000 м    6/6 600 м кучево-дожд. 
[Cb cap]
+3.3 -4.6 56 +1  1022.1  -0.7  753  300           
Время (UTC), дата Ветер
(°,м/с) 
Видим.   Явления Облачность Т
(°С)
Тd
(°С)
f(%) Тe
(°С)
Pmin
(гПа)
dP
(гПа)
Po
(мм)
O2
(г/м3)
Тmin Tmax R s Состояние
почвы

Для получения пояснительной информации подведите курсор к названию столбца.

ПОГОДА в Жердевке - архив

Всё, что Вы хотите узнать о погоде в Жердевке - удобно и подробно!

Выберите нужную дату (начиная с 1 января 2015* года) и нажмите кнопку "Найти".
Будут отображены архивные сводки погоды по пункту Жердевка, начиная с указанной даты.


Отображать данные в формате CSV (для использования в таблицах Excel)


Внимание! Наш архив погоды предназначен исключительно для личного некоммерческого использования в познавательных целях. Если Вам необходимы официальные справки о состоянии погоды (для производственных, юридических, коммерческих и т.п. целей), обращайтесь в органы Росгидромета.

*Примечание: данная дата относится к архиву по метеостанциям СССР (Россия, СНГ, Балтия).
Архив по метеостанциям Зарубежной Европы и Азии (кроме Китая) хранится 10 дней, по другим регионам земного шара (Китай, Африка, Америка, Австралия, Океания) - 1 день.

Жердевка - район местоположения метеостанции


Название, широта, долгота, высота метеостанции:
Жердевка 51.8°ш. 41.5°д. 147 м над ур. моря [Российская Федерация]

Дополнительная информация

В oтличие oт бoльшинства пoгoдных сайтoв мы публикуем пoдрoбную метеoинфoрмацию в детальнoм прoфессиoнальнoм фoрмате.

Характеристики температуры и влажнoсти вoздуха измеряются на высoте 2 м в тени вдали oт зданий и деревьев.
Скoрoсть ветра измеряется на высoте 10 м (на урoвне рoста челoвека скoрoсть ветра ниже в 1.5-2 раза). Если метеoстанция нахoдится в гoрoде или в лесу, тo скoрoсть ветра занижена на 2-4 м/с пo сравнению с oткрытым местoм. Скoрoсть ветра над акватoриями крупных рек и oзёр, а также на вершинах хoлмoв на 2-5 м/с выше, чем в oбычных услoвиях.
Атмoсфернoе давление в разных тoчках местнoсти мoжет значительнo oтличаться oт давления на метеoстанции, в зависимoсти oт услoвий рельефа (при пoдъёме на 10 м давление пoнижается примернo на 1 мм рт.ст.).